Home > Weather > Asheville > Past weeks

Flag for USA Past Weather in Asheville, North Carolina, USA — Yesterday and Last 2 Weeks

Now
63 °F

Clear.


Feels Like: 63 °F
Forecast: 62 / 84 °F
Wind: No wind

Location: Asheville Regional Airport

Current Time: Jul 2, 2016 at 5:46:49 AM

Latest Report: Jul 2, 2016 at 4:54 AM


Visibility: 10 mi

Pressure: 30.01 "Hg (27.81 "Hg at 647m altitude)

Humidity: 90%

Dew Point: 60 °F

Location of AshevilleLocation

Past Weather in Asheville — Graph

°F

Asheville Temperature Yesterday

Maximum temperature yesterday: 87 °F (at 3:54 PM)
Minimum temperature yesterday: 67 °F (at 5:58 AM)
Average temperature yesterday: 76 °F

High & Low Weather Summary for the Past Weeks

 TemperatureHumidityPressure
High92 °F (Jun 23, 2:54 PM)93% (Jun 29, 4:54 AM)30.40 "Hg (Jun 29, 4:54 AM)
Low54 °F (Jun 20, 3:54 AM)26% (Jun 19, 2:54 PM)29.73 "Hg (Jun 17, 3:54 AM)
Average74 °F64%30.06 "Hg
* Reported Jun 17 3:54 AM — Jul 2 3:54 AM, Asheville, Weather by CustomWeather, © 2016

Note: Actual official high and low records may vary slightly from our data, if they occured in-between our weather recording intervals... More about our weather records

Advertising

Asheville Weather History for the Previous 24 Hours

Scroll right to see more
 ConditionsComfort  
Time TempWeatherWind HumidityBarometerVisibility
3:54 AM
Sat, Jul 2
64 °FClear.No wind87%30.00 "Hg10 mi
2:54 AM65 °FClear.3 mph87%30.01 "Hg10 mi
1:54 AM67 °FClear.3 mph85%30.02 "Hg10 mi
12:54 AM68 °FClear.No wind82%30.01 "Hg10 mi
11:54 PM
Fri, Jul 1
71 °FClear.No wind73%30.01 "Hg10 mi
10:54 PM72 °FClear.5 mph71%30.01 "Hg10 mi
9:54 PM78 °FPassing clouds.No wind52%29.99 "Hg10 mi
8:54 PM79 °FMostly cloudy.3 mph48%29.98 "Hg10 mi
7:54 PM80 °FMostly cloudy.12 mph45%29.97 "Hg10 mi
6:54 PM82 °FScattered clouds.14 mph43%29.96 "Hg10 mi
5:54 PM86 °FPartly sunny.6 mph37%29.94 "Hg10 mi
4:54 PM86 °FSunny.3 mph33%29.93 "Hg10 mi
3:54 PM87 °FSunny.5 mph33%29.93 "Hg10 mi
2:54 PM84 °FPartly sunny.No wind36%29.96 "Hg10 mi
1:54 PM86 °FPassing clouds.No wind37%29.97 "Hg10 mi
12:54 PM85 °FPassing clouds.9 mph40%29.98 "Hg10 mi
11:54 AM84 °FSunny.N/A40%29.98 "Hg10 mi
10:54 AM77 °FSunny.No wind71%29.99 "Hg9 mi
9:54 AM72 °FScattered clouds.No wind81%30.01 "Hg7 mi
8:54 AM69 °FFog.No wind87%30.01 "Hg5 mi
8:01 AM67 °FFog.No wind93%30.08 "Hg4 mi
6:54 AM67 °FFog.No wind93%29.99 "Hg1 mi
5:58 AM67 °FMostly cloudy.3 mph93%30.06 "Hg9 mi
Weather by CustomWeather, © 2016

See weather overviewHow to use our weather pages